Location: 22
(39.7117°N, 89.5929°W)
Time: 04:54:00
(UTC-05:00)

Vanguard 1 Rocket - Pass Details

Date: 10 February 2023
Orbit: 652 x 4223 km, 34.3° (Epoch: 26 March)

Event Time Altitude Azimuth Distance (km) Brightness Sun altitude
Rises 15:11:55 0° 278° (W) 5,193 11.8 21.8°
Reaches altitude 10° 15:14:46 10° 273° (W) 4,558 11.8 21.4°
Maximum altitude 15:28:09 54° 201° (SSW) 3,579 11.3 19.5°
Drops below altitude 10° 15:51:05 10° 133° (SE) 7,349 11.9 16.0°
Sets 15:57:23 0° 129° (SE) 8,461 12.2 15.0°
